sat.trackr.live / text

‹ back to catalog

STARLINK-1677

NORAD 46576 · 2020-070AW

PAYLOAD ACTIVE UNKNOWN

§ Identity

Operator
Country
US
Launch date
2020-10-06
Launch site
AFETR
Launch vehicle
Mass (kg)
RCS (m²)

Purposes: comms

External: N2YO · Heavens-Above · Gunter

§ Orbital elements

Epoch: 2026-06-21T21:08:06.153792Z

Period
88.22 min
Inclination
53.0128°
Eccentricity
0.0013799
Mean motion
16.32214002 rev/d
Perigee alt
177.5 km
Apogee alt
195.7 km
Semi-major
6,564.7 km
B*
8.5091e-4
RAAN
319.2005°
Arg perigee
300.4582°
Mean anomaly
59.5098°
Rev number
31,674

§ Raw data

STARLINK-16771 46576U 20070AW  26172.88062678  .05107319  12191-4  85091-3 0  99902 46576  53.0128 319.2005 0013799 300.4582  59.5098 16.32214002316748

JSON: /api/v1/satellites/46576 · /tle

For live sub-satellite position, see the globe view (requires WebGL).

§ Visibility from observer

Set your observer location to see the next 7 days of passes ≥ 10°. The values pass through the URL so the page stays shareable.

No JS? Fill the form by hand. The geolocation button needs JavaScript.